N504NT KSYR-KBOS

Flight info

Callsign N504NT
Flight time N/A
Altitude 29000
Route LAMMS T316 CAM GDM T608 REVER
Aircraft P180/L-VGD/C

Departure

Time 2026-04-25 00:50
Airport Syracuse Hancock International Airport (KSYR)

Arrival

Time N/A
Airport Boston Logan International Airport (KBOS)
Time Latitude Longitude Altitude Speed Heading
2026-04-25 00:34 43.10575 -76.11454 409 ft 0 kts 298°
2026-04-25 00:35 43.10570 -76.11441 415 ft 3 kts 298°
2026-04-25 00:35 43.10567 -76.11433 413 ft 0 kts 298°
2026-04-25 00:44 43.10568 -76.11444 416 ft 1 kts 262°
2026-04-25 00:44 43.10556 -76.11451 417 ft 3 kts 171°
2026-04-25 00:44 43.10569 -76.11420 411 ft 8 kts
2026-04-25 00:44 43.10609 -76.11352 413 ft 7 kts 82°
2026-04-25 00:45 43.10610 -76.11348 413 ft 2 kts 79°
2026-04-25 00:45 43.10625 -76.11300 413 ft 9 kts 73°
2026-04-25 00:45 43.10629 -76.11189 414 ft 14 kts 89°
2026-04-25 00:45 43.10636 -76.11036 414 ft 18 kts 86°
2026-04-25 00:46 43.10644 -76.10843 411 ft 22 kts 88°
2026-04-25 00:46 43.10649 -76.10629 411 ft 23 kts 87°
2026-04-25 00:46 43.10666 -76.10108 406 ft 30 kts 87°
2026-04-25 00:47 43.10678 -76.09812 404 ft 32 kts 87°
2026-04-25 00:47 43.10686 -76.09543 406 ft 24 kts 89°
2026-04-25 00:47 43.10644 -76.09368 404 ft 16 kts 69°
2026-04-25 00:47 43.10720 -76.09271 407 ft 15 kts 22°
2026-04-25 00:48 43.10827 -76.09263 410 ft 15 kts 356°
2026-04-25 00:48 43.10842 -76.09264 410 ft 0 kts 356°
2026-04-25 00:49 43.10864 -76.09265 410 ft 18 kts 359°
2026-04-25 00:50 43.10933 -76.09373 409 ft 43 kts 274°
2026-04-25 00:50 43.10910 -76.10142 405 ft 115 kts 268°
2026-04-25 00:50 43.10862 -76.11379 777 ft 146 kts 269°
2026-04-25 00:50 43.10822 -76.12853 1358 ft 163 kts 270°
2026-04-25 00:51 43.10776 -76.14492 1866 ft 184 kts 270°
2026-04-25 00:51 43.10728 -76.16250 2386 ft 185 kts 269°
2026-04-25 00:51 43.10692 -76.18020 2894 ft 187 kts 269°
2026-04-25 00:51 43.10668 -76.19807 3388 ft 189 kts 270°
2026-04-25 00:52 43.10652 -76.21616 3856 ft 193 kts 270°
2026-04-25 00:52 43.10632 -76.23537 3988 ft 211 kts 270°
2026-04-25 00:52 43.10609 -76.25633 4004 ft 227 kts 270°
2026-04-25 00:52 43.10515 -76.27843 4009 ft 238 kts 257°
2026-04-25 00:53 43.09667 -76.29730 4001 ft 234 kts 219°
2026-04-25 00:53 43.08192 -76.30459 3988 ft 226 kts 178°
2026-04-25 00:53 43.06760 -76.29781 3994 ft 218 kts 144°
2026-04-25 00:53 43.05574 -76.28513 4000 ft 215 kts 138°
2026-04-25 00:54 43.04433 -76.27197 3999 ft 214 kts 138°
2026-04-25 00:54 43.03294 -76.25883 3998 ft 213 kts 138°
2026-04-25 00:54 43.02161 -76.24577 3999 ft 213 kts 138°
2026-04-25 00:54 43.01036 -76.23266 3995 ft 212 kts 135°
2026-04-25 00:55 43.00409 -76.21555 4199 ft 196 kts 93°
2026-04-25 00:55 43.00452 -76.19652 4690 ft 205 kts 88°
2026-04-25 00:55 43.00374 -76.17669 5162 ft 213 kts 94°
2026-04-25 00:55 43.00170 -76.15635 5652 ft 219 kts 96°
2026-04-25 00:56 42.99956 -76.13557 6180 ft 222 kts 94°
2026-04-25 00:56 42.99759 -76.11477 6833 ft 221 kts 93°
2026-04-25 00:56 42.99566 -76.09372 7541 ft 223 kts 92°
2026-04-25 00:56 42.99373 -76.07300 8319 ft 222 kts 92°
2026-04-25 00:57 42.99176 -76.05201 9128 ft 222 kts 91°
2026-04-25 00:57 42.98980 -76.03105 9941 ft 223 kts 90°
2026-04-25 00:57 42.98783 -76.01015 10707 ft 220 kts 90°
2026-04-25 00:57 42.98587 -75.98907 11343 ft 226 kts 89°
2026-04-25 00:58 42.98387 -75.96773 12029 ft 227 kts 89°
2026-04-25 00:58 42.98185 -75.94646 12684 ft 229 kts 89°
2026-04-25 00:58 42.97980 -75.92476 13329 ft 231 kts 89°
2026-04-25 00:58 42.97773 -75.90290 13934 ft 233 kts 89°
2026-04-25 00:59 42.97563 -75.88085 14474 ft 235 kts 89°
2026-04-25 00:59 42.97352 -75.85865 14998 ft 237 kts 88°
2026-04-25 00:59 42.97138 -75.83629 15525 ft 238 kts 88°
2026-04-25 00:59 42.96923 -75.81373 16046 ft 240 kts 88°
2026-04-25 01:00 42.96705 -75.79099 16548 ft 242 kts 88°
2026-04-25 01:00 42.96486 -75.76809 17026 ft 244 kts 88°
2026-04-25 01:00 42.96263 -75.74500 17504 ft 246 kts 88°
2026-04-25 01:00 42.96039 -75.72172 17969 ft 248 kts 88°
2026-04-25 01:01 42.95812 -75.69822 18409 ft 250 kts 88°
2026-04-25 01:01 42.95583 -75.67459 18794 ft 252 kts 88°
2026-04-25 01:01 42.95352 -75.65075 19169 ft 255 kts 87°
2026-04-25 01:01 42.95118 -75.62668 19532 ft 257 kts 87°
2026-04-25 01:02 42.94884 -75.60272 19903 ft 259 kts 87°
2026-04-25 01:02 42.94642 -75.57795 20291 ft 261 kts 87°
2026-04-25 01:02 42.94403 -75.55353 20667 ft 264 kts 87°
2026-04-25 01:02 42.94158 -75.52856 21043 ft 266 kts 87°
2026-04-25 01:03 42.93910 -75.50336 21422 ft 268 kts 87°
2026-04-25 01:03 42.93660 -75.47799 21806 ft 271 kts 87°
2026-04-25 01:03 42.93408 -75.45241 22186 ft 273 kts 86°
2026-04-25 01:03 42.93154 -75.42659 22590 ft 275 kts 86°
2026-04-25 01:04 42.92897 -75.40088 22988 ft 278 kts 86°
2026-04-25 01:04 42.92635 -75.37457 23402 ft 280 kts 86°
2026-04-25 01:04 42.92370 -75.34810 23763 ft 282 kts 86°
2026-04-25 01:04 42.92104 -75.32145 24122 ft 284 kts 86°
2026-04-25 01:05 42.91835 -75.29470 24474 ft 285 kts 86°
2026-04-25 01:05 42.91565 -75.26782 24833 ft 287 kts 85°
2026-04-25 01:05 42.91294 -75.24077 25192 ft 289 kts 85°
2026-04-25 01:05 42.91019 -75.21358 25572 ft 290 kts 85°
2026-04-25 01:06 42.90741 -75.18621 25943 ft 292 kts 85°
2026-04-25 01:06 42.90463 -75.15873 26325 ft 293 kts 84°
2026-04-25 01:06 42.90182 -75.13109 26705 ft 295 kts 84°